Presque Isle, ME

8:21 AM EDT on April 27, 2017 (GMT -0400)
Northern Maine Regional At Presque Isle

Weather History for KPQI - January, 2014

Change the Weather History Date:

Friday, January 31, 2014

  Actual Average Record
Temperature  
Mean Temperature 22 °F -  
Max Temperature 33 °F 22 °F 53 °F (2013)
Min Temperature 10 °F 3 °F -34 °F (1934)
Degree Days  
Heating Degree Days 44    
Moisture  
Dew Point 10 °F    
Average Humidity 55    
Maximum Humidity 79    
Minimum Humidity 35    
Precipitation  
Precipitation 0.36 in - - ()
Sea Level Pressure  
Sea Level Pressure 29.89 in    
Wind  
Wind Speed 12 mph (SW)    
Max Wind Speed 22 mph    
Max Gust Speed 31 mph    
Visibility 10 miles    
Events      
Averages and records for this station are not official NWS values.
T = Trace of Precipitation, MM = Missing Value Source: NWS Daily Summary

Daily Weather History Graph

Daily Weather History Graph

Search for Another Location

Airport or City:

Trip Planner

Search our weather history database for the weather conditions in past years. The results will help you decide how hot, cold, wet, or windy it might be!

Date:

Astronomy

Jan. 31, 2014 Rise Set
Actual Time 6:57 AM EST 4:34 PM EST
Civil Twilight 6:25 AM EST 5:06 PM EST
Nautical Twilight 5:48 AM EST 5:43 PM EST
Astronomical Twilight 5:13 AM EST 6:18 PM EST
Moon 6:58 AM EST (1/31) 6:02 PM EST (1/31)
Length of Visible Light 10h 41m
Length of Day
9h 36m
New Moon, 1% of the Moon is Illuminated
Jan 31
New Moon
Feb 6
First Quarter
Feb 14
Full
Feb 22
Last Quarter
Mar 1
New

Hourly Weather History & Observations

Time (EST) Temp. Windchill Dew Point Humidity Pressure Visibility Wind Dir Wind Speed Gust Speed Precip Events Conditions
12:15 AM 10.4 °F -2.4 °F 1.4 °F 67% 30.00 in 10.0 mi SSE 9.2 mph - N/A   Clear
12:35 AM 10.4 °F -2.4 °F 1.4 °F 67% 29.99 in 10.0 mi SSE 9.2 mph - N/A   Clear
12:55 AM 12.2 °F -0.2 °F -7.6 °F 41% 29.97 in 10.0 mi SSE 9.2 mph - N/A   Clear
1:15 AM 12.2 °F 1.7 °F 1.4 °F 62% 29.95 in 10.0 mi SE 6.9 mph - N/A   Clear
1:35 AM 12.2 °F 2.9 °F 6.8 °F 79% 29.94 in 10.0 mi ESE 5.8 mph - N/A   Clear
1:55 AM 17.6 °F 3.2 °F 6.8 °F 63% 29.94 in 10.0 mi South 15.0 mph - N/A   Clear
2:15 AM 19.4 °F 5.5 °F 5.0 °F 54% 29.94 in 10.0 mi South 15.0 mph 18.4 mph N/A   Clear
2:35 AM 19.4 °F 4.1 °F 5.0 °F 54% 29.92 in 10.0 mi South 18.4 mph 26.5 mph N/A   Clear
2:55 AM 19.4 °F 4.5 °F 6.8 °F 58% 29.90 in 10.0 mi South 17.3 mph 23.0 mph N/A   Clear
3:15 AM 21.2 °F 5.2 °F 6.8 °F 54% 29.87 in 10.0 mi South 21.9 mph - N/A   Scattered Clouds
3:35 AM 21.2 °F 5.2 °F 8.6 °F 58% 29.87 in 10.0 mi South 21.9 mph 31.1 mph N/A   Mostly Cloudy
3:55 AM 21.2 °F 5.2 °F 8.6 °F 58% 29.85 in 10.0 mi South 21.9 mph 31.1 mph N/A   Mostly Cloudy
4:15 AM 21.2 °F 6.0 °F 8.6 °F 58% 29.85 in 10.0 mi South 19.6 mph 25.3 mph N/A   Overcast
4:35 AM 21.2 °F 5.6 °F 10.4 °F 63% 29.84 in 10.0 mi South 20.7 mph 27.6 mph N/A   Overcast
4:55 AM 21.2 °F 6.4 °F 10.4 °F 63% 29.84 in 10.0 mi SSW 18.4 mph 21.9 mph N/A   Overcast
5:15 AM 21.2 °F 6.4 °F 8.6 °F 58% 29.84 in 10.0 mi South 18.4 mph 25.3 mph N/A   Overcast
5:35 AM 21.2 °F 6.4 °F 10.4 °F 63% 29.83 in 10.0 mi South 18.4 mph 26.5 mph N/A   Overcast
5:55 AM 21.2 °F 7.3 °F 10.4 °F 63% 29.81 in 10.0 mi South 16.1 mph 25.3 mph N/A   Overcast
6:15 AM 23.0 °F 9.2 °F 10.4 °F 59% 29.79 in 10.0 mi South 17.3 mph 28.8 mph N/A   Overcast
6:35 AM 23.0 °F 10.1 °F 10.4 °F 59% 29.79 in 10.0 mi South 15.0 mph 21.9 mph N/A   Overcast
6:55 AM 23.0 °F 11.1 °F 8.6 °F 54% 29.82 in 10.0 mi SSW 12.7 mph 17.3 mph N/A   Overcast
7:15 AM 23.0 °F 11.1 °F 8.6 °F 54% 29.84 in 10.0 mi SSW 12.7 mph 24.2 mph N/A   Overcast
7:35 AM 21.2 °F 7.3 °F 8.6 °F 58% 29.83 in 10.0 mi SSW 16.1 mph 23.0 mph N/A   Overcast
7:55 AM 21.2 °F 7.3 °F 8.6 °F 58% 29.83 in 10.0 mi SSW 16.1 mph 19.6 mph N/A   Overcast
8:15 AM 21.2 °F 8.3 °F 8.6 °F 58% 29.83 in 10.0 mi South 13.8 mph - N/A   Overcast
8:35 AM 23.0 °F 12.4 °F 8.6 °F 54% 29.83 in 10.0 mi South 10.4 mph - N/A   Overcast
8:55 AM 23.0 °F 13.9 °F 8.6 °F 54% 29.83 in 10.0 mi South 8.1 mph - N/A   Overcast
9:15 AM 23.0 °F 13.9 °F 6.8 °F 50% 29.83 in 10.0 mi SSW 8.1 mph - N/A   Overcast
9:35 AM 24.8 °F 17.9 °F 6.8 °F 46% 29.84 in 10.0 mi SSW 5.8 mph - N/A   Overcast
9:55 AM 24.8 °F 14.0 °F 6.8 °F 46% 29.83 in 10.0 mi SSW 11.5 mph - N/A   Mostly Cloudy
10:15 AM 26.6 °F 16.2 °F 6.8 °F 43% 29.83 in 10.0 mi South 11.5 mph - N/A   Scattered Clouds
10:35 AM 26.6 °F 16.2 °F 6.8 °F 43% 29.82 in 10.0 mi South 11.5 mph - N/A   Partly Cloudy
10:55 AM 28.4 °F 18.0 °F 8.6 °F 43% 29.81 in 10.0 mi South 12.7 mph - N/A   Clear
11:15 AM 30.2 °F 19.8 °F 8.6 °F 40% 29.81 in 10.0 mi SW 13.8 mph 19.6 mph N/A   Clear
11:35 AM 30.2 °F 19.3 °F 6.8 °F 37% 29.80 in 10.0 mi SW 15.0 mph 23.0 mph N/A   Clear
11:55 AM 30.2 °F 20.2 °F 8.6 °F 40% 29.81 in 10.0 mi WSW 12.7 mph 26.5 mph N/A   Mostly Cloudy
12:15 PM 30.2 °F 18.5 °F 8.6 °F 40% 29.80 in 10.0 mi WSW 17.3 mph 24.2 mph N/A   Overcast
12:35 PM 32.0 °F 22.1 °F 8.6 °F 38% 29.80 in 10.0 mi WSW 13.8 mph 23.0 mph N/A   Mostly Cloudy
12:55 PM 33.8 °F 25.3 °F 8.6 °F 35% 29.80 in 10.0 mi WSW 11.5 mph 23.0 mph N/A   Overcast
1:15 PM 33.8 °F 23.2 °F 8.6 °F 35% 29.80 in 10.0 mi WSW 17.3 mph 26.5 mph N/A   Mostly Cloudy
1:35 PM 33.8 °F 24.8 °F 8.6 °F 35% 29.80 in 10.0 mi West 12.7 mph 20.7 mph N/A   Mostly Cloudy
1:55 PM 33.8 °F 23.5 °F 10.4 °F 38% 29.80 in 10.0 mi West 16.1 mph 23.0 mph N/A   Mostly Cloudy
2:15 PM 33.8 °F 23.5 °F 10.4 °F 38% 29.80 in 10.0 mi WSW 16.1 mph 24.2 mph 0.10 in   Partly Cloudy
2:35 PM 33.8 °F 24.8 °F 12.2 °F 41% 29.82 in 10.0 mi West 12.7 mph 25.3 mph 0.30 in   Mostly Cloudy
2:55 PM 32.0 °F 19.8 °F 12.2 °F 44% 29.83 in 10.0 mi West 20.7 mph 27.6 mph 0.36 in   Scattered Clouds
3:15 PM 30.2 °F 19.8 °F 12.2 °F 47% 29.84 in 10.0 mi West 13.8 mph - N/A   Clear
3:35 PM 30.2 °F 21.3 °F 12.2 °F 47% 29.85 in 10.0 mi West 10.4 mph 17.3 mph N/A   Scattered Clouds
3:55 PM 30.2 °F 18.9 °F 12.2 °F 47% 29.86 in 10.0 mi West 16.1 mph 19.6 mph N/A   Scattered Clouds
4:15 PM 30.2 °F 19.3 °F 12.2 °F 47% 29.87 in 10.0 mi West 15.0 mph 26.5 mph N/A   Partly Cloudy
4:35 PM 28.4 °F 16.6 °F 12.2 °F 51% 29.88 in 10.0 mi West 16.1 mph 23.0 mph N/A   Partly Cloudy
4:55 PM 28.4 °F 19.1 °F 14.0 °F 55% 29.88 in 10.0 mi West 10.4 mph - N/A   Clear
5:15 PM 28.4 °F 22.2 °F 14.0 °F 55% 29.89 in 10.0 mi West 5.8 mph - N/A   Partly Cloudy
5:35 PM 28.4 °F 21.2 °F 14.0 °F 55% 29.90 in 10.0 mi West 6.9 mph - N/A   Mostly Cloudy
5:55 PM 26.6 °F 17.5 °F 14.0 °F 59% 29.92 in 10.0 mi West 9.2 mph - N/A   Partly Cloudy
6:15 PM 26.6 °F 20.0 °F 14.0 °F 59% 29.92 in 10.0 mi WSW 5.8 mph - N/A   Clear
6:35 PM 26.6 °F 19.1 °F 14.0 °F 59% 29.93 in 10.0 mi West 6.9 mph - N/A   Clear
6:55 PM 26.6 °F 18.2 °F 14.0 °F 59% 29.94 in 10.0 mi West 8.1 mph - N/A   Clear
7:15 PM 26.6 °F 17.5 °F 14.0 °F 59% 29.95 in 10.0 mi WSW 9.2 mph - N/A   Clear
7:35 PM 26.6 °F 20.0 °F 14.0 °F 59% 29.96 in 10.0 mi WSW 5.8 mph - N/A   Clear
7:55 PM 26.6 °F 19.1 °F 14.0 °F 59% 29.97 in 10.0 mi SW 6.9 mph - N/A   Clear
8:15 PM 24.8 °F 17.9 °F 14.0 °F 64% 29.98 in 10.0 mi WSW 5.8 mph - N/A   Clear
8:35 PM 24.8 °F 17.9 °F 14.0 °F 64% 29.97 in 10.0 mi WSW 5.8 mph - N/A   Clear
8:55 PM 24.8 °F 16.9 °F 12.2 °F 59% 29.97 in 10.0 mi West 6.9 mph - N/A   Clear
9:15 PM 24.8 °F 16.9 °F 14.0 °F 64% 29.99 in 10.0 mi WSW 6.9 mph - N/A   Clear
9:35 PM 24.8 °F 16.1 °F 14.0 °F 64% 30.00 in 10.0 mi WSW 8.1 mph - N/A   Clear
9:55 PM 24.8 °F 16.9 °F 14.0 °F 64% 30.01 in 10.0 mi WSW 6.9 mph - N/A   Clear
10:15 PM 24.8 °F 17.9 °F 14.0 °F 64% 30.02 in 10.0 mi WSW 5.8 mph - N/A   Clear
10:35 PM 23.0 °F 15.8 °F 14.0 °F 68% 30.03 in 10.0 mi West 5.8 mph - N/A   Clear
10:55 PM 23.0 °F 15.8 °F 15.8 °F 74% 30.04 in 10.0 mi West 5.8 mph - N/A   Clear
11:15 PM 23.0 °F 15.8 °F 14.0 °F 68% 30.04 in 10.0 mi WSW 5.8 mph - N/A   Clear
11:35 PM 23.0 °F 14.7 °F 14.0 °F 68% 30.05 in 10.0 mi WSW 6.9 mph - N/A   Clear
11:55 PM 23.0 °F 14.7 °F 15.8 °F 74% 30.04 in 10.0 mi WSW 6.9 mph - N/A   Clear